Miscellaneous Local Product
Issued by NWS Hastings, NE

Home | Current Version | Previous Version | Text Only | Print | Product List | Glossary On
Versions: 1 2 3 4 5 6 7 8 9 10 11 12 13 14 15 16 17 18 19 20 21 22 23 24 25 26 27 28 29 30 31 32 33 34 35 36 37 38 39 40 41 42 43 44 45 46 47 48 49 50
000
AXUS43 KGID 180502
MISGRI

GID CWA HOURLY WEATHER ROUNDUP
NATIONAL WEATHER SERVICE HASTINGS NE
1100 PM CST FRI NOV 17 2017

NOTE: "FAIR" INDICATES FEW OR NO CLOUDS BELOW 12,000 FEET WITH NO
SIGNIFICANT WEATHER AND/OR OBSTRUCTIONS TO VISIBILITY.

...SOUTH CENTRAL NEBRASKA...

CITY           SKY/WX    TMP DP  RH WIND       PRES   REMARKS
GRAND ISLAND   RAIN      41  39  93 N20       29.67R
KEARNEY        NOT AVBL
HASTINGS       LGT RAIN  41  36  82 N18G30    29.65R
ORD            CLOUDY    40  37  89 N10       29.67F WCI  33
YORK           LGT RAIN  41  41 100 N23G35    29.61F
AURORA         CLOUDY    42  37  81 N21       29.66R
LEXINGTON      RAIN      42  37  83 N6        29.70R
HOLDREGE       LGT RAIN  42  37  84 N15G24    29.66F
HEBRON         CLOUDY    46  38  74 N12G20    29.57R

...NEBRASKA PANHANDLE...

CITY           SKY/WX    TMP DP  RH WIND       PRES   REMARKS
CHADRON        CLOUDY    37  35  92 NW9       29.85R WCI  30
ALLIANCE       CLOUDY    36  34  92 N17       29.79R WCI  26
SCOTTSBLUFF    CLOUDY    39  29  67 NW16      29.84R WCI  30
SIDNEY         CLOUDY    38  34  85 N18G28    29.79R WCI  28

...WESTERN AND NORTH CENTRAL NEBRASKA...

CITY           SKY/WX    TMP DP  RH WIND       PRES   REMARKS
VALENTINE      MIX PCPN  37  34  89 N6        29.79R WCI  32
AINSWORTH      CLOUDY    37  35  94 N16       29.74F WCI  27
ONEILL         CLOUDY    40  37  90 N12       29.73R WCI  32
BROKEN BOW     LGT RAIN  40  37  89 N15       29.69S WCI  32
NORTH PLATTE   LGT RAIN  41  38  89 N6        29.71R
MCCOOK         CLOUDY    43  39  86 N17       29.68S

...EASTERN NEBRASKA...

CITY           SKY/WX    TMP DP  RH WIND       PRES   REMARKS
NORFOLK        CLOUDY    40  38  93 N12       29.66S WCI  33
SO SIOUX CITY  LGT RAIN  41  39  93 N9        29.68R
TEKAMAH        LGT RAIN  44  38  79 N16       29.67R
COLUMBUS       MOCLDY    43  38  82 N14G22    29.66S
ALBION         RAIN      41  39  93 N12       29.70R
OMAHA EPPLEY   CLOUDY    48  41  76 N16       29.62R
OFFUTT AFB     CLOUDY    49  43  78 N13       29.59R
MILLARD        CLOUDY    50  43  77 N8G20     29.59R
LINCOLN        CLOUDY    47  39  74 N26G33    29.57F
NEBRASKA CITY  LGT RAIN  53  53 100 N14       29.55R
BEATRICE       CLOUDY    50  41  72 N20G25    29.53F
FALLS CITY     CLOUDY    57  55  93 N14       29.48S FOG

...NORTHERN KANSAS...

CITY           SKY/WX    TMP DP  RH WIND       PRES   REMARKS
GOODLAND       CLOUDY    43  33  68 N21G30    29.72R
HILL CITY      CLEAR     45  34  65 N21G33    29.64R
NORTON         CLEAR     41  28  60 N16G22    29.64S
PHILLIPSBURG   CLEAR     46  34  61 N21G32    29.62S
SMITH CENTER   CLEAR     43  34  70 N20G30    29.60R
HAYS           CLEAR     45  35  68 N22G29    29.58R
RUSSELL        PTCLDY    46  38  73 N18       29.56R
CONCORDIA      PTCLDY    47  38  71 N14       29.51R
SALINA         CLOUDY    55  50  83 N16       29.46R
TOPEKA         PTCLDY    54  53  97 CALM      29.40F



USA.gov is the U.S. government's official web portal to all federal, state and local government web resources and services.